| time (UTC) | temp F | wind direction | speed MPH | gust MPH | rain 1hr in | rain 24hr in | rain mn in | humidity % | barometer mb |
| 20260902150408 | 56 | 178 | 0.0 | 0.0 | 0.00 | 0.00 | 0.00 | 25 | 1015.6 |
| 20260902143408 | 55 | 143 | 0.0 | 0.0 | 0.00 | 0.00 | 0.00 | 24 | 1015.6 |
| 20260902140414 | 55 | 159 | 0.0 | 0.0 | 0.00 | 0.00 | 0.00 | 23 | 1015.2 |
| 20260902133408 | 55 | 150 | 0.0 | 0.0 | 0.00 | 0.00 | 0.00 | 23 | 1015.2 |
| 20260902130411 | 55 | 143 | 0.0 | 0.0 | 0.00 | 0.00 | 0.00 | 23 | 1015.2 |
| 20260902123411 | 54 | 134 | 0.0 | 0.0 | 0.00 | 0.00 | 0.00 | 24 | 1015.2 |
| 20260902120408 | 54 | 156 | 0.0 | 0.0 | 0.00 | 0.00 | 0.00 | 24 | 1015.4 |
| 20260902113408 | 54 | 134 | 0.0 | 1.0 | 0.00 | 0.00 | 0.00 | 26 | 1015.5 |
| 20260902110408 | 54 | 121 | 0.0 | 0.0 | 0.00 | 0.00 | 0.00 | 29 | 1016.0 |
| 20260902103408 | 54 | 122 | 0.0 | 1.0 | 0.00 | 0.00 | 0.00 | 31 | 1016.4 |
| 20260902100408 | 54 | 139 | 0.0 | 0.0 | 0.00 | 0.00 | 0.00 | 31 | 1016.7 |
| 20260902093408 | 53 | 84 | 0.0 | 0.0 | 0.00 | 0.00 | 0.00 | 37 | 1016.9 |
| 20260902090408 | 53 | 108 | 0.0 | 0.0 | 0.00 | 0.00 | 0.00 | 41 | 1017.3 |
| 20260902083408 | 53 | 153 | 0.0 | 0.0 | 0.00 | 0.00 | 0.00 | 30 | 1017.9 |
| 20260902080408 | 53 | 103 | 0.0 | 0.0 | 0.00 | 0.00 | 0.00 | 32 | 1018.0 |
| 20260902073408 | 54 | 127 | 0.0 | 0.0 | 0.00 | 0.00 | 0.00 | 35 | 1018.0 |
| 20260902070411 | 55 | 117 | 0.0 | 0.0 | 0.00 | 0.00 | 0.00 | 31 | 1018.2 |
| 20260902063411 | 55 | 138 | 0.0 | 0.0 | 0.00 | 0.00 | 0.00 | 29 | 1018.5 |
| 20260902060408 | 56 | 125 | 0.0 | 0.0 | 0.00 | 0.00 | 0.00 | 33 | 1018.6 |
| 20260902053411 | 56 | 114 | 0.0 | 0.0 | 0.00 | 0.00 | 0.00 | 40 | 1018.9 |
| 20260902050408 | 57 | 140 | 0.0 | 0.0 | 0.00 | 0.00 | 0.00 | 41 | 1019.1 |
| 20260902043411 | 58 | 118 | 0.0 | 0.0 | 0.00 | 0.00 | 0.00 | 40 | 1019.1 |
| 20260902040408 | 58 | 111 | 0.0 | 0.0 | 0.00 | 0.00 | 0.00 | 43 | 1019.0 |
| 20260902033407 | 58 | 123 | 0.0 | 0.0 | 0.00 | 0.00 | 0.00 | 31 | 1018.6 |
| 20260902030408 | 58 | 112 | 0.0 | 0.0 | 0.00 | 0.00 | 0.00 | 30 | 1018.3 |
| 20260902023407 | 57 | 112 | 0.0 | 0.0 | 0.00 | 0.00 | 0.00 | 39 | 1018.2 |
| 20260902020408 | 59 | 156 | 0.0 | 0.0 | 0.00 | 0.00 | 0.00 | 38 | 1018.3 |
| 20260902013411 | 61 | 183 | 0.0 | 0.0 | 0.00 | 0.00 | 0.00 | 38 | 1018.2 |
| 20260902010408 | 64 | 165 | 0.0 | 1.0 | 0.00 | 0.00 | 0.00 | 36 | 1018.1 |
| 20260902003408 | 65 | 156 | 0.0 | 1.0 | 0.00 | 0.00 | 0.00 | 38 | 1017.9 |
| 20260902000407 | 67 | 197 | 0.0 | 1.0 | 0.00 | 0.00 | 0.00 | 35 | 1017.7 |
| 20260901233408 | 68 | 162 | 0.0 | 2.0 | 0.00 | 0.00 | 0.00 | 29 | 1017.4 |
| 20260901230410 | 69 | 190 | 0.0 | 3.0 | 0.00 | 0.00 | 0.00 | 26 | 1017.3 |
| 20260901223408 | 69 | 219 | 0.0 | 1.0 | 0.00 | 0.00 | 0.00 | 23 | 1017.4 |
| 20260901220408 | 69 | 204 | 0.0 | 3.0 | 0.00 | 0.00 | 0.00 | 24 | 1017.3 |
| 20260901213407 | 69 | 161 | 0.0 | 4.0 | 0.00 | 0.00 | 0.00 | 22 | 1017.2 |
| 20260901210408 | 70 | 187 | 0.0 | 4.0 | 0.00 | 0.00 | 0.00 | 20 | 1016.9 |
| 20260901203408 | 72 | 181 | 0.0 | 1.0 | 0.00 | 0.00 | 0.00 | 21 | 1016.8 |
| 20260901200408 | 71 | 158 | 0.0 | 2.0 | 0.00 | 0.00 | 0.00 | 24 | 1016.7 |
| 20260901193407 | 70 | 224 | 0.0 | 1.0 | 0.00 | 0.00 | 0.00 | 25 | 1016.7 |
| 20260901190408 | 69 | 169 | 0.0 | 2.0 | 0.00 | 0.00 | 0.00 | 26 | 1016.5 |
| 20260901183407 | 69 | 189 | 0.0 | 2.0 | 0.00 | 0.00 | 0.00 | 21 | 1016.4 |
| 20260901180410 | 69 | 193 | 0.0 | 1.0 | 0.00 | 0.00 | 0.00 | 23 | 1016.1 |
| 20260901173408 | 67 | 165 | 0.0 | 0.0 | 0.00 | 0.00 | 0.00 | 22 | 1015.7 |
| 20260901170407 | 64 | 125 | 0.0 | 1.0 | 0.00 | 0.00 | 0.00 | 23 | 1015.5 |
| 20260901163407 | 60 | 153 | 0.0 | 1.0 | 0.00 | 0.00 | 0.00 | 26 | 1015.2 |
| 20260901160407 | 59 | 153 | 0.0 | 0.0 | 0.00 | 0.00 | 0.00 | 27 | 1015.0 |
| 20260901153408 | 58 | 134 | 0.0 | 0.0 | 0.00 | 0.00 | 0.00 | 26 | 1014.7 |